Notices

What's New in latest Release from April 7th, 2021:

- Updated Glossary, including Speed of Maximum Gust, and Total Hourly Precipitation

- Updated national and regional climate services offices contacts and prices information

- Addition of station inventory lists for 1981-2010, 1971-2000, and 1961-1990 Normals.

If you haven't already, please take our survey and provide feedback about our website: https://eccc.sondage-survey.ca/f/LanguageSelection.aspx?s=442ca660-fcf1-47c0-95a9-59707d6fd709

Hourly Data Report for April 25, 2018

CLYDE RIVER A
NUNAVUT
Current Station Operator: NAVCAN

70°29'09.000" N
68°31'01.000" W
26.50 m
2400804
71090
YCY

Download Data

Hourly Data (April 2018)
Hourly Data Report for April 25, 2018
TIME
LST
Temp Definition
°C
Dew Point Definition
°C
Rel Hum Definition
%
Precip. Amount Definition
mm

Wind Dir Definition
10's deg

Wind Spd Definition
km/h
Visibility Definition
km
Stn Press Definition
kPa
Hmdx Definition


Wind Chill Definition


Weather Definition


00:00 -26.1 -28.4 82 0.0 28 8 16.1 100.75   -33 LegendNANA
01:00 -25.9 -28.2 81 0.0 27 4 16.1 100.78   -30 LegendNANA
02:00 -27.0 -29.1 83 0.0 29 5 16.1 100.81   -32 LegendNANA
03:00 -27.0 -29.6 79 0.0 29 4 16.1 100.83   -31 LegendNANA
04:00 -26.9 -29.5 79 0.0 26 4 16.1 100.83   -31 LegendNANA
05:00 -25.4 -28.2 78 0.0 30 8 16.1 100.85   -33 LegendNANA
06:00 -23.7 -26.2 81 0.0 32 8 16.1 100.86   -31 LegendNANA
07:00 -23.0 -25.3 82 0.0 27 4 16.1 100.88   -27 LegendNANA
08:00 -21.0 -23.0 84 0.0   0 11.3 100.88     LegendNANA
09:00 -20.9 -22.9 84 0.0   0 16.1 100.88     LegendNANA
10:00 -20.0 -22.2 83 0.0   0 16.1 100.89     LegendNANA
11:00 -19.4 -21.9 81 0.0 4 8 6.4 100.89   -26 Snow
12:00 -19.0 -22.1 77 0.0 4 4 4.8 100.90   -22 Snow
13:00 -18.6 -21.6 77 0.0 LegendMM 4 11.3 100.91   -22 Snow
14:00 -18.1 -20.8 80 0.0 7 4 16.1 100.92   -21 Snow
15:00 -18.1 -20.6 81 0.0   0 16.1 100.92     LegendNANA
16:00 -17.8 -20.4 80 0.0   0 16.1 100.93     Snow
17:00 -18.3 -20.5 83 0.0 35 4 16.1 100.93   -22 Snow
18:00 -20.4 -22.7 82 0.0 36 9 16.1 100.95   -27 Snow
19:00 -20.2 -22.2 84 0.0 36 5 16.1 100.97   -25 Snow
20:00 -22.0 -23.5 88 0.0 35 4 16.1 100.97   -26 Snow
21:00 -24.6 -26.6 84 0.0 33 8 16.1 100.97   -32 Snow
22:00 -24.4 -26.8 81 0.0 32 8 16.1 100.98   -31 Snow
23:00 -24.8 -26.9 83 0.0 35 9 16.1 100.98   -32 Snow

Notes on Data Quality.

Legend

  • E = Estimated
  • M = Missing
  • NA = Not Available*
  • [empty] = Indicates an unobserved value
Date modified: